TimePST,TemperatureF,Dew PointF,Humidity,Sea Level PressureIn,VisibilityMPH,Wind Direction,Wind SpeedMPH,Gust SpeedMPH,PrecipitationIn,Events,Conditions,WindDirDegrees,DateUTC
12:56 AM,33.1,28.9,85,30.25,10.0,Calm,Calm,-,N/A,,Clear,0,2013-01-20 08:56:00
1:56 AM,30.0,27.0,88,30.26,10.0,Calm,Calm,-,N/A,,Clear,0,2013-01-20 09:56:00
2:56 AM,28.9,26.1,89,30.27,10.0,Calm,Calm,-,N/A,,Clear,0,2013-01-20 10:56:00
3:56 AM,28.0,26.1,92,30.27,10.0,Calm,Calm,-,N/A,,Clear,0,2013-01-20 11:56:00
4:56 AM,30.0,26.1,85,30.27,10.0,Calm,Calm,-,N/A,,Clear,0,2013-01-20 12:56:00
5:56 AM,28.9,26.1,89,30.26,10.0,Calm,Calm,-,N/A,,Clear,0,2013-01-20 13:56:00
6:56 AM,27.0,24.1,89,30.27,10.0,Calm,Calm,-,N/A,,Clear,0,2013-01-20 14:56:00
7:56 AM,28.9,26.1,89,30.27,10.0,Calm,Calm,-,N/A,,Clear,0,2013-01-20 15:56:00
8:56 AM,32.0,28.9,88,30.28,10.0,Calm,Calm,-,0.01,,Clear,0,2013-01-20 16:56:00
9:56 AM,39.0,32.0,76,30.28,10.0,Calm,Calm,-,N/A,,Clear,0,2013-01-20 17:56:00
10:56 AM,46.0,30.9,56,30.26,10.0,Calm,Calm,-,N/A,,Clear,0,2013-01-20 18:56:00
11:56 AM,53.1,28.9,40,30.22,10.0,Calm,Calm,-,N/A,,Clear,0,2013-01-20 19:56:00
12:56 PM,57.9,30.0,35,30.18,10.0,Calm,Calm,-,N/A,,Clear,0,2013-01-20 20:56:00
1:56 PM,62.1,28.0,28,30.14,10.0,Calm,Calm,-,N/A,,Clear,0,2013-01-20 21:56:00
2:56 PM,64.0,30.0,28,30.13,10.0,Calm,Calm,-,N/A,,Clear,0,2013-01-20 22:56:00
3:56 PM,62.1,36.0,38,30.14,10.0,Calm,Calm,-,N/A,,Clear,0,2013-01-20 23:56:00
4:56 PM,53.1,35.1,50,30.15,10.0,Calm,Calm,-,N/A,,Clear,0,2013-01-21 00:56:00
5:56 PM,50.0,32.0,50,30.16,10.0,Calm,Calm,-,N/A,,Clear,0,2013-01-21 01:56:00
6:56 PM,46.0,32.0,58,30.18,7.0,Calm,Calm,-,N/A,,Clear,0,2013-01-21 02:56:00
7:56 PM,41.0,32.0,70,30.19,10.0,Calm,Calm,-,N/A,,Clear,0,2013-01-21 03:56:00
8:56 PM,39.0,32.0,76,30.20,7.0,Calm,Calm,-,N/A,,Clear,0,2013-01-21 04:56:00
9:56 PM,37.0,30.9,79,30.21,10.0,Calm,Calm,-,N/A,,Clear,0,2013-01-21 05:56:00
10:56 PM,34.0,28.9,82,30.22,10.0,Calm,Calm,-,N/A,,Clear,0,2013-01-21 06:56:00
11:56 PM,33.1,28.9,85,30.21,10.0,Calm,Calm,-,N/A,,Clear,0,2013-01-21 07:56:00